AD7CQ Weather Reports


time (UTC)temp
F
wind
direction
speed
knots
gust
knots
rain 1hr
in
rain 24hr
in
rain mn
in
humidity
%
barometer
mb
20260508004542 81 118 0.0 3.5 0.00 0.00 0.00 22 1009.1
20260508003039 82 120 0.0 2.6 0.00 0.00 0.00 23 1009.1
20260508001541 82 123 0.9 1.7 0.00 0.00 0.00 24 1009.2
20260508000037 82 105 0.0 0.0 0.00 0.00 0.00 23 1009.1
20260507234536 82 122 0.9 7.0 0.00 0.00 0.00 22 1009.2
20260507233053 82 126 0.0 3.5 0.00 0.00 0.00 25 1009.3
20260507231537 82 181 0.9 4.3 0.00 0.00 0.00 23 1009.5
20260507230030 83 104 0.9 2.6 0.00 0.00 0.00 24 1009.7
20260507224528 82 118 0.9 5.2 0.00 0.00 0.00 26 1010.0
20260507223022 81 107 0.0 2.6 0.00 0.00 0.00 26 1010.3
20260507221524 79 91 0.9 3.5 0.00 0.00 0.00 27 1010.3
20260507220019 79 245 0.9 3.5 0.00 0.00 0.00 27 1010.6
20260507214517 80 106 0.0 3.5 0.00 0.00 0.00 26 1010.9
20260507213021 78 117 0.9 3.5 0.00 0.00 0.00 27 1011.0
20260507211516 79 131 0.0 1.7 0.00 0.00 0.00 27 1011.2
20260507210014 80 108 1.7 6.1 0.00 0.00 0.00 27 1011.3
20260507204514 78 108 0.9 7.8 0.00 0.00 0.00 28 1011.5
20260507203009 78 218 0.9 4.3 0.00 0.00 0.00 28 1011.6
20260507201513 77 96 0.0 9.6 0.00 0.00 0.00 30 1011.7
20260507200011 76 192 0.9 6.1 0.00 0.00 0.00 31 1011.8
20260507194505 77 114 0.9 7.8 0.00 0.00 0.00 31 1012.0
20260507193100 75 118 1.7 7.8 0.00 0.00 0.00 34 1012.1
20260507191558 74 177 0.0 5.2 0.00 0.00 0.00 35 1012.1
20260507190057 74 189 1.7 5.2 0.00 0.00 0.00 36 1012.2
20260507184552 73 146 0.0 3.5 0.00 0.00 0.00 38 1012.3
20260507183049 72 218 0.9 6.1 0.00 0.00 0.00 40 1012.4
20260507181553 72 112 1.7 7.0 0.00 0.00 0.00 40 1012.3
20260507180043 72 181 0.9 5.2 0.00 0.00 0.00 40 1012.4
20260507174549 71 268 0.0 0.0 0.00 0.00 0.00 39 1012.5
20260507173052 70 274 0.0 0.9 0.00 0.00 0.00 40 1012.6
20260507171541 70 301 0.0 0.0 0.00 0.00 0.00 39 1012.7
20260507170026 69 305 0.0 0.0 0.00 0.00 0.00 42 1012.8
20260507164529 69 305 0.0 0.0 0.00 0.00 0.00 44 1012.9
20260507163019 67 305 0.0 0.0 0.00 0.00 0.00 46 1012.8
20260507161516 66 305 0.0 0.0 0.00 0.00 0.00 47 1012.8
20260507160014 65 307 0.0 0.0 0.00 0.00 0.00 50 1012.9
20260507154506 65 306 0.0 0.0 0.00 0.00 0.00 52 1012.8
20260507153002 63 310 0.0 0.0 0.00 0.00 0.00 57 1012.7
20260507151601 62 308 0.0 0.0 0.00 0.00 0.00 60 1012.8
20260507150100 62 359 0.0 0.0 0.00 0.00 0.00 63 1012.6
20260507144554 61 309 0.0 0.0 0.00 0.00 0.00 64 1012.6
20260507143047 60 309 0.0 0.0 0.00 0.00 0.00 64 1012.5
20260507141551 59 308 0.0 0.0 0.00 0.00 0.00 67 1012.5
20260507140039 57 308 0.0 0.0 0.00 0.00 0.00 70 1012.3
20260507134532 56 308 0.0 0.0 0.00 0.00 0.00 73 1012.2
20260507133029 55 308 0.0 0.0 0.00 0.00 0.00 75 1012.2
20260507131530 54 308 0.0 0.0 0.00 0.00 0.00 76 1011.9
20260507130025 55 359 0.0 0.0 0.00 0.00 0.00 75 1011.8
20260507124520 55 309 0.0 0.0 0.00 0.00 0.00 74 1011.7
20260507123016 55 309 0.0 0.0 0.00 0.00 0.00 74 1011.7
20260507121516 54 309 0.0 0.0 0.00 0.00 0.00 74 1011.6
20260507120035 54 309 0.0 0.0 0.00 0.00 0.00 75 1011.5
20260507114510 55 309 0.0 0.0 0.00 0.00 0.00 74 1011.4
20260507113032 55 309 0.0 2.6 0.00 0.00 0.00 75 1011.4
20260507111509 55 310 0.0 1.7 0.00 0.00 0.00 74 1011.4
20260507110011 55 310 0.0 0.0 0.00 0.00 0.00 74 1011.5
20260507104506 55 310 0.0 2.6 0.00 0.00 0.00 74 1011.5
20260507103008 56 308 0.0 2.6 0.00 0.00 0.00 73 1011.5
20260507101507 56 301 0.0 0.0 0.00 0.00 0.00 71 1011.4
20260507100109 56 301 0.0 0.0 0.00 0.00 0.00 69 1011.2
20260507094559 58 301 0.0 0.9 0.00 0.00 0.00 68 1011.1
20260507093056 58 301 0.0 1.7 0.00 0.00 0.00 66 1011.1
20260507091555 58 301 0.0 0.9 0.00 0.00 0.00 66 1011.0
20260507090056 58 301 0.0 1.7 0.00 0.00 0.00 68 1011.0
20260507084558 58 301 0.0 0.9 0.00 0.00 0.00 65 1011.2
20260507083050 58 301 0.0 1.7 0.00 0.00 0.00 62 1010.9
20260507081549 59 301 0.0 0.9 0.00 0.00 0.00 60 1011.0
20260507080047 59 301 0.0 1.7 0.00 0.00 0.00 59 1011.0
20260507074548 60 302 0.0 0.0 0.00 0.00 0.00 60 1011.1
20260507073052 61 301 0.0 1.7 0.00 0.00 0.00 62 1010.9
20260507071538 62 301 0.0 2.6 0.00 0.00 0.00 61 1010.8
20260507070039 62 301 0.0 1.7 0.00 0.00 0.00 61 1010.3
20260507064542 63 301 0.0 2.6 0.00 0.00 0.00 59 1010.3
20260507063040 63 301 0.0 1.7 0.00 0.00 0.00 58 1010.1
20260507061537 64 303 0.0 0.0 0.00 0.00 0.00 57 1010.0
20260507060036 65 303 0.0 0.0 0.00 0.00 0.00 55 1009.9
20260507054531 66 303 0.0 0.0 0.00 0.00 0.00 50 1010.3
20260507053035 67 303 0.0 0.0 0.00 0.00 0.00 44 1010.0
20260507051530 68 303 0.0 0.0 0.00 0.00 0.00 42 1010.1
20260507050032 69 303 0.0 0.0 0.00 0.00 0.00 39 1010.0
20260507044527 69 303 0.0 0.0 0.00 0.00 0.00 41 1009.8
20260507043030 69 304 0.0 0.0 0.00 0.00 0.00 40 1009.8
20260507041528 70 303 0.0 3.5 0.00 0.00 0.00 40 1009.5
20260507040024 70 285 0.9 3.5 0.00 0.00 0.00 39 1009.2
20260507034532 71 299 0.0 1.7 0.00 0.00 0.00 38 1009.2
20260507033024 72 297 0.0 5.2 0.00 0.00 0.00 37 1008.9
20260507031522 73 260 0.9 7.0 0.00 0.00 0.00 36 1008.6
20260507030024 73 301 0.9 4.3 0.00 0.00 0.00 36 1008.3
20260507024522 75 259 0.9 7.0 0.00 0.00 0.00 35 1008.1
20260507023022 75 278 0.9 4.3 0.00 0.00 0.00 35 1008.2
20260507021521 76 301 0.9 4.3 0.00 0.00 0.00 34 1008.0
20260507020021 77 295 0.9 3.5 0.00 0.00 0.00 33 1007.9
20260507014524 78 293 0.9 4.3 0.00 0.00 0.00 33 1007.8
20260507013020 79 307 0.9 3.5 0.00 0.00 0.00 31 1007.8
20260507011520 80 251 0.9 7.8 0.00 0.00 0.00 31 1007.8
20260507010029 80 254 0.9 4.3 0.00 0.00 0.00 33 1007.6